{"data":{"norad_id":66179,"intl_designator":"2025-243C","name":"STARLINK-35346","alt_names":[],"object_type":"PAYLOAD","status":"ACTIVE","operator":null,"country":"US","launch_date":"2025-10-26","launch_site_code":"AFETR","launch_vehicle":null,"mission":null,"orbit_class":"UNKNOWN","rcs_meters":null,"size_class":null,"mass_kg":null,"dimensions":null,"purposes":["comms"],"wikipedia_slug":null,"has_3d_model":false,"image_url":null,"decayed_at":null,"tle_current":{"epoch":"2026-09-20T16:51:31.400928Z","epoch_age_seconds":82956,"freshness":"FRESH","line1":"1 66179U 25243C   26263.70244677  .00023614  00000+0  70768-3 0  9997","line2":"2 66179  53.1592  56.4216 0001348 100.6842 259.4313 15.34406593 50559","mean_motion":15.34406593,"eccentricity":0.0001348,"inclination_deg":53.1592,"raan_deg":56.4216,"arg_perigee_deg":100.6842,"mean_anomaly_deg":259.4313,"bstar":0.00070768,"rev_number":5055,"period_min":93.847354838627,"perigee_km":461.76150186898,"apogee_km":463.60578711474,"semimajor_km":6840.8206444919,"source":"CELESTRAK","updated_at":"2026-09-21T09:00:35.833519Z"}}}